Wind_Speed
20 18 16 14 12 11 10 11 13 13 13 13 13 14 13 13 13 12 9 6 5 8 9 8 6 5 6 8 9 10 11 11 10 10 11 11 11 11 11 12 13 13 11 10 10 10 10 9 9 9 9 8 9 9 9 9 9 9 9 9 9 9 10 10 10 10 11 11 10 10 11 12 12 12 12 12 13 13 13 14 15 15 15 16 17
20 18 17 15 14 13 12 13 14 13 12 13 13 14 13 13 13 12 9 6 6 7 10 9 7 6 6 7 8 9 11 11 11 11 11 11 11 11 10 11 13 13 12 11 10 9 9 8 8 9 8 8 9 9 8 9 8 8 9 9 9 9 9 10 9 10 10 10 10 10 10 11 11 12 12 11 12 12 12 13 13 14 14 15 16
19 20 19 17 15 14 12 12 13 12 11 11 12 13 12 12 11 10 7 7 7 7 10 11 8 7 7 7 9 11 12 12 12 11 11 11 11 11 11 12 12 13 12 10 9 9 8 8 8 8 7 7 8 8 8 8 8 8 9 9 10 10 10 10 10 10 10 11 11 11 11 11 11 11 12 11 11 11 12 12 12 13 14 15 15
20 20 19 17 15 13 12 11 11 11 10 9 10 12 11 10 9 9 7 7 8 9 11 11 8 8 8 8 11 14 13 12 13 12 11 11 11 12 12 12 11 11 10 9 9 9 8 9 9 8 7 7 8 8 8 8 8 8 9 10 10 10 10 10 10 11 12 13 14 14 14 14 13 13 12 12 12 11 11 11 11 11 13 13 14
21 21 19 17 15 14 13 11 9 11 12 10 10 12 12 11 10 11 9 8 10 13 13 10 9 9 9 11 14 15 14 13 12 12 12 11 11 12 12 11 10 10 10 11 11 9 9 10 9 9 9 9 9 9 9 9 9 10 10 12 12 12 12 12 13 14 15 16 16 17 17 16 16 15 14 14 14 13 13 12 11 11 12 12 12
21 21 19 18 16 16 15 13 11 12 14 12 12 12 13 14 12 11 11 11 14 15 13 11 10 10 10 11 15 15 14 13 12 12 13 12 11 11 11 10 10 10 12 13 12 10 10 10 10 10 10 10 10 10 10 10 10 10 11 12 12 12 13 13 13 14 14 15 15 15 14 14 14 14 15 15 15 16 15 15 13 12 11 11 12
22 21 20 18 17 17 16 15 14 14 14 15 14 13 13 14 12 12 13 14 16 15 12 11 12 12 11 11 13 14 12 13 13 12 12 12 11 9 9 8 9 12 14 14 12 11 10 9 9 10 10 10 10 10 10 10 9 10 10 9 10 10 10 10 10 10 10 10 10 10 9 9 9 11 12 13 14 15 16 16 14 13 11 10 11
23 21 20 19 17 17 17 16 16 15 15 15 15 13 12 13 12 11 13 16 16 15 12 11 12 12 11 11 11 11 11 12 12 12 12 11 10 9 8 7 8 12 14 13 12 11 8 7 6 7 8 9 9 8 8 8 8 8 9 8 8 8 8 7 6 6 7 7 6 6 5 5 6 7 8 10 12 13 14 14 13 12 10 9 9
23 21 21 20 18 18 18 16 16 15 14 15 15 13 12 13 14 11 11 14 16 15 13 12 12 11 10 10 9 9 11 11 11 12 13 11 10 9 8 7 8 12 14 12 11 9 7 6 5 5 5 6 7 8 8 7 6 7 7 6 6 7 6 5 4 4 4 5 5 4 3 2 3 3 4 7 9 11 13 13 11 10 10 9 9
22 22 21 21 19 18 18 17 16 15 15 16 15 13 12 13 16 14 10 12 15 17 16 13 12 11 10 9 9 9 8 8 9 11 13 12 11 10 8 7 8 11 13 11 10 8 5 5 4 4 4 4 5 7 8 9 8 7 7 5 5 4 4 4 3 2 3 3 3 3 2 2 2 2 3 5 7 9 11 11 9 8 10 9 8
23 22 21 21 20 20 18 18 17 16 16 16 15 13 13 13 16 16 12 11 14 17 18 15 12 11 10 9 8 8 7 8 9 10 12 13 13 12 10 8 7 10 13 11 9 7 5 4 3 3 4 4 4 4 6 8 9 8 7 6 5 4 3 3 2 3 4 4 4 4 4 3 3 3 5 7 7 8 9 9 7 8 10 11 10
23 22 20 21 22 21 20 20 18 17 17 16 16 14 15 16 16 17 16 15 15 17 18 17 14 11 10 9 8 7 6 7 8 9 10 11 13 14 12 11 9 10 12 11 9 6 4 3 3 3 5 4 4 4 4 6 7 8 8 8 7 5 4 4 6 6 7 7 6 6 7 6 6 6 6 6 8 7 7 9 8 8 11 12 13
23 22 21 21 22 23 22 21 19 17 18 17 15 15 15 16 16 17 20 20 18 17 19 20 17 12 10 10 8 7 5 5 5 6 8 10 13 14 13 12 12 10 11 11 9 6 5 4 3 4 5 5 5 5 4 4 5 6 7 8 7 6 7 8 9 9 9 8 8 8 8 8 8 8 8 7 8 8 8 9 8 8 11 11 12
23 22 22 22 23 24 24 22 20 18 18 16 15 15 16 16 18 20 22 21 19 19 20 18 14 12 10 8 7 5 4 4 5 6 7 8 10 12 12 12 12 11 11 11 9 7 6 5 4 4 5 6 6 6 5 5 6 6 8 8 8 10 11 10 10 9 10 9 8 8 8 8 8 8 7 7 8 9 9 9 8 8 10 10 9
23 23 22 22 23 24 25 22 20 19 19 17 15 16 17 18 21 23 22 19 18 19 19 14 14 16 11 5 3 3 3 3 4 6 6 7 9 12 12 12 12 13 12 10 8 7 7 6 5 4 5 6 7 7 7 7 8 8 10 10 10 11 11 9 10 10 9 8 7 7 7 7 6 7 7 8 9 10 10 10 9 9 9 9 9
22 23 22 21 22 23 23 22 19 19 19 18 17 18 19 19 20 24 24 22 20 20 17 13 17 18 8 3 2 2 1 1 3 4 5 7 9 11 11 11 11 12 11 10 8 8 9 9 6 4 5 6 8 9 9 10 11 11 12 12 11 10 9 9 10 10 9 8 8 7 7 7 6 8 10 11 11 12 12 12 11 9 8 8 7
22 22 21 21 21 21 22 21 19 18 19 18 18 19 18 18 19 22 25 25 23 23 18 13 17 18 11 6 4 0 1 2 4 3 4 6 8 9 10 10 10 10 10 10 9 9 10 11 8 6 6 7 9 11 12 12 13 13 13 12 10 9 8 9 10 10 9 9 9 9 9 8 8 11 13 13 14 14 13 12 10 8 7 6 5
22 21 20 20 20 20 21 20 19 19 18 16 17 19 18 18 19 21 23 24 25 24 19 16 20 18 11 8 4 2 6 8 4 1 2 5 6 8 9 10 10 10 10 11 11 10 11 12 10 8 8 9 10 11 12 12 12 12 11 10 9 8 8 9 10 10 9 10 11 10 10 10 11 12 14 15 15 14 13 12 10 7 5 4 4
21 21 20 19 19 20 20 20 21 20 17 16 17 19 19 19 20 20 21 22 24 24 21 20 23 17 11 10 5 4 13 14 6 3 3 3 6 9 10 10 10 10 11 13 12 11 11 13 12 10 11 10 10 11 11 11 11 10 10 9 9 8 9 10 10 10 10 10 11 10 10 10 11 12 13 14 14 13 12 10 8 6 5 5 5
20 20 20 19 18 19 20 20 21 19 17 17 18 19 19 19 19 19 19 21 21 22 22 23 23 17 12 10 6 7 16 14 11 10 5 2 4 6 9 11 11 11 13 14 13 12 12 14 13 12 12 11 10 10 10 10 10 9 9 9 8 9 10 12 12 11 10 10 10 10 9 9 10 10 11 12 12 11 10 9 8 7 6 6 6
20 20 19 18 19 19 19 20 20 19 18 17 18 19 19 20 20 19 19 20 19 20 21 23 23 18 14 9 6 14 15 9 12 13 6 4 3 3 7 10 10 12 15 14 12 12 13 14 14 12 11 10 10 9 9 10 10 10 9 8 8 9 10 11 11 11 10 10 10 9 9 9 9 10 11 11 11 11 10 9 8 8 7 7 6
20 20 19 19 19 18 19 20 19 19 18 17 18 19 18 19 20 19 19 19 19 20 21 22 23 20 16 13 14 19 13 6 12 14 8 6 3 4 9 9 9 12 15 15 13 13 14 15 14 13 11 10 9 9 10 10 10 10 9 8 9 10 10 10 10 10 10 9 9 9 9 9 10 11 11 11 11 10 10 9 8 8 7 7 6
20 20 20 19 19 19 19 19 18 17 18 19 19 19 18 18 19 18 19 18 18 19 20 21 22 20 18 17 18 21 17 12 16 18 13 8 5 5 9 11 10 12 15 15 14 13 14 16 14 13 11 9 9 10 10 10 10 10 10 9 10 10 10 10 10 10 10 10 10 10 10 10 10 10 10 10 10 9 9 9 8 7 7 7 7
20 20 21 20 20 20 20 19 17 17 19 20 19 19 18 18 18 19 19 19 18 18 19 20 20 20 20 19 18 21 20 17 20 22 19 16 12 8 10 12 8 9 15 15 14 15 16 17 15 13 11 10 10 11 11 11 10 11 11 10 10 9 9 9 9 9 10 10 10 10 10 10 9 9 9 9 9 9 9 8 8 8 8 8 8
20 20 21 21 21 20 20 19 18 17 18 19 19 18 17 18 19 20 19 19 18 18 19 20 19 18 19 20 18 19 19 17 19 22 19 18 17 12 11 12 7 9 14 13 13 16 18 19 16 13 13 11 10 11 11 10 11 12 11 10 9 8 8 8 8 9 9 9 9 9 9 9 9 8 8 8 8 8 8 7 7 8 8 8 8
23 23 23 22 20 19 18 18 18 17 17 18 18 18 17 17 18 19 19 18 17 17 18 18 18 17 18 19 19 17 18 16 17 20 20 19 20 17 13 9 6 9 11 11 14 15 16 19 19 16 15 13 11 10 10 11 12 13 12 11 10 8 8 8 8 8 8 8 8 8 8 8 7 7 6 6 6 7 7 7 7 7 7 7 8
25 24 24 21 19 19 18 18 18 17 17 19 19 19 17 17 17 18 18 17 16 16 17 17 18 18 17 18 19 17 17 16 16 20 21 19 21 24 20 10 5 6 7 9 13 15 17 20 21 20 18 15 12 9 9 12 13 13 12 11 10 10 10 9 8 8 8 8 7 7 7 7 6 6 6 6 6 6 6 6 6 6 6 6 7
25 25 23 21 20 21 20 20 20 17 17 19 20 19 17 16 17 19 18 17 16 16 16 16 17 17 16 16 18 18 17 15 16 19 21 20 21 26 26 19 10 5 4 6 7 9 17 21 20 21 20 16 13 10 10 12 14 13 12 12 12 12 11 9 9 9 8 8 7 7 6 6 6 6 6 6 5 5 5 5 6 5 6 6 5
26 24 22 21 22 22 21 21 21 18 18 19 18 18 17 16 18 19 18 17 16 16 16 16 15 15 15 16 18 17 16 15 16 18 18 20 23 26 28 27 20 10 4 5 5 7 16 21 19 21 22 17 14 12 12 14 14 13 13 13 13 13 12 10 10 9 8 7 7 7 7 6 6 6 5 5 5 5 5 4 4 4 4 4 4
25 24 23 22 23 22 21 21 20 19 18 18 18 18 17 16 17 18 17 17 17 16 17 16 15 15 14 16 17 16 16 16 17 17 16 19 24 26 27 27 23 17 12 7 5 10 18 21 18 20 22 19 15 13 14 15 14 14 14 14 14 14 13 11 11 10 9 8 7 7 6 6 6 5 5 4 4 4 3 3 3 3 3 2 2
25 24 24 24 24 23 21 21 21 20 18 17 17 18 17 17 17 17 16 16 17 18 17 16 16 16 14 15 16 15 16 17 16 16 15 17 23 26 26 26 23 20 19 14 6 10 20 24 21 20 21 20 17 15 16 16 14 14 14 14 15 15 14 13 12 11 9 9 8 7 7 6 5 5 4 3 3 3 2 2 2 2 2 2 2
27 26 25 25 25 23 23 22 21 19 18 17 17 17 17 17 17 17 17 17 17 18 18 16 16 17 16 15 15 15 16 16 16 18 17 17 22 25 24 25 24 21 20 17 10 9 19 25 24 22 21 21 18 17 18 17 15 15 14 15 16 16 15 14 13 12 11 10 9 8 7 6 6 5 4 3 3 2 2 2 2 2 2 3 3
28 27 26 25 24 23 24 22 20 18 17 17 17 16 16 16 17 17 18 18 18 17 17 16 15 17 16 16 16 16 16 15 15 17 19 18 21 24 21 20 23 22 21 21 14 11 15 20 22 22 21 21 19 18 19 18 16 16 15 15 17 17 16 16 15 14 13 12 11 10 9 8 7 7 6 5 5 4 4 4 4 4 4 4 4
29 27 27 25 23 24 24 21 20 18 16 17 18 16 15 15 17 18 19 19 17 16 16 16 15 15 16 16 16 16 16 16 15 16 19 19 19 22 20 17 19 20 22 24 21 15 16 18 20 22 21 21 20 19 20 19 17 17 17 17 18 18 17 17 16 15 14 13 13 12 12 11 10 10 9 9 8 8 7 7 7 7 6 7 7
30 28 26 25 24 23 22 21 21 18 16 18 18 16 15 15 15 17 18 18 18 17 17 16 14 14 15 15 16 17 16 16 15 16 18 19 18 18 19 18 19 17 17 23 24 21 19 18 20 22 23 23 21 19 20 20 18 17 18 18 18 18 18 18 18 17 15 15 14 14 14 14 13 13 13 13 12 12 11 11 10 10 10 10 10
30 28 25 24 24 23 23 23 21 18 17 19 19 17 15 15 15 16 17 17 17 17 16 15 14 14 14 14 15 17 17 16 15 16 17 18 18 18 18 17 18 16 14 19 25 24 22 20 21 24 24 24 22 18 19 20 19 18 18 18 18 18 17 18 18 18 17 16 16 16 16 16 17 17 17 16 16 16 15 15 14 14 14 13 13
28 27 25 23 23 23 24 24 22 19 18 19 19 18 15 15 16 16 16 16 16 15 15 15 14 13 13 13 13 16 18 16 15 16 16 17 17 17 17 16 18 18 15 16 23 24 23 24 24 23 23 24 22 19 19 21 21 20 19 19 19 18 18 18 18 18 18 18 19 19 19 20 21 21 21 21 20 20 19 19 18 18 17 17 16
27 26 25 24 24 24 24 23 22 21 19 18 18 17 15 15 16 15 14 16 15 15 15 15 14 13 12 12 13 15 17 17 16 16 15 15 15 16 15 14 15 17 13 14 21 23 23 25 25 23 24 25 22 20 20 21 21 22 22 22 22 21 20 20 20 19 18 19 20 20 22 23 24 24 25 24 24 24 23 23 22 21 21 20 20
27 26 25 24 24 24 24 23 23 22 19 17 17 18 16 14 14 13 13 15 15 15 15 15 14 13 11 11 12 14 17 17 16 16 15 14 15 15 14 11 13 16 14 13 18 22 23 24 24 24 25 25 23 21 21 22 22 22 22 23 24 24 23 23 23 22 21 20 20 21 22 24 25 26 27 28 28 28 27 27 26 25 24 23 23
26 26 25 24 24 24 25 25 23 22 19 16 17 18 15 14 13 13 13 15 16 16 16 15 15 13 10 9 10 12 14 16 15 15 14 14 14 16 15 11 12 18 18 15 16 21 23 24 24 24 24 25 24 20 18 22 24 24 25 26 26 26 25 24 24 23 23 23 23 24 25 26 27 28 29 31 32 32 32 31 30 28 27 27 26
26 26 24 22 23 25 26 25 22 20 18 17 18 17 15 14 15 14 14 15 16 17 18 17 15 12 9 6 7 9 11 12 13 12 11 12 12 14 15 12 13 17 17 15 17 22 24 23 23 22 20 22 24 20 18 23 26 27 28 28 28 28 26 26 27 25 25 26 27 28 28 29 29 29 31 32 33 33 34 34 33 32 30 29 28
27 26 24 22 25 27 26 24 22 19 18 18 18 17 15 15 15 14 14 14 15 17 18 17 15 12 9 7 7 8 9 9 11 9 7 8 8 8 9 9 11 14 13 13 17 22 23 22 21 20 19 22 25 24 23 26 28 28 27 27 30 30 26 24 27 28 28 28 30 32 32 31 33 33 33 34 33 33 35 35 34 34 32 31 30
28 27 27 26 27 27 25 23 22 20 19 18 18 17 16 16 14 13 13 12 13 16 16 16 16 14 12 10 9 9 10 10 10 9 9 8 8 7 6 5 4 4 8 12 17 19 20 19 18 18 19 23 26 27 26 26 26 28 28 28 29 28 23 20 22 25 27 28 31 34 34 33 35 37 37 36 35 35 35 35 35 35 34 33 31
29 29 29 29 28 26 25 24 22 21 20 18 18 17 17 17 15 13 12 11 12 14 16 16 17 16 14 13 11 10 10 11 10 9 10 10 9 9 10 10 10 7 5 8 11 12 12 12 12 12 13 17 20 20 20 20 20 22 25 25 26 27 25 23 23 25 27 26 27 31 34 34 35 39 40 37 36 36 36 36 36 36 36 36 34
31 32 32 31 30 27 24 23 22 21 20 18 18 16 15 15 15 14 12 10 11 14 17 18 18 17 15 14 13 11 9 9 9 10 11 10 8 9 9 8 8 9 8 8 8 8 7 7 6 6 5 6 7 6 7 9 10 11 14 18 22 24 25 27 28 29 29 27 26 27 30 33 35 38 40 37 36 37 37 37 37 38 39 38 36
33 34 32 31 30 26 23 22 20 20 19 17 16 16 15 15 15 14 12 13 15 16 18 18 18 17 16 15 14 12 10 9 9 10 11 10 9 8 8 7 6 6 7 7 7 7 6 5 5 4 3 2 2 2 3 5 6 6 7 10 12 15 18 19 21 23 24 25 24 21 23 30 32 33 36 37 36 37 37 38 39 40 40 40 39
34 34 32 30 29 25 22 20 19 18 16 14 14 14 15 16 17 16 16 18 20 19 19 19 18 18 17 15 14 13 11 10 10 10 10 10 10 10 10 9 8 6 6 7 7 7 7 6 6 5 3 1 3 3 4 5 6 7 8 9 11 13 15 16 17 17 17 20 20 18 20 25 25 25 30 32 32 33 34 35 36 37 37 38 38
33 32 31 29 28 26 22 19 19 18 15 13 13 13 14 16 18 19 20 21 22 21 21 20 19 18 16 14 13 12 11 11 11 10 9 9 9 10 11 10 9 8 7 7 7 7 7 6 6 6 6 6 6 7 7 8 8 9 10 11 12 14 15 16 16 16 15 14 14 14 18 21 20 20 23 23 22 24 26 27 29 30 30 30 30
33 31 30 29 28 27 24 21 20 20 18 15 13 14 15 15 17 20 21 22 24 24 23 22 20 19 16 14 13 12 12 11 10 9 8 6 7 8 8 7 6 5 5 5 4 4 5 5 6 7 8 8 9 9 10 11 11 11 12 12 13 14 15 14 14 15 15 13 12 13 16 16 14 15 17 17 19 20 21 21 22 23 23 23 22
34 31 30 30 29 27 26 24 22 21 20 17 15 16 17 17 19 21 22 24 25 25 23 21 19 18 16 14 13 12 12 11 10 8 7 5 5 5 4 4 4 4 5 4 5 5 6 7 7 8 9 9 9 9 9 10 10 11 11 12 12 14 14 12 12 14 16 14 12 13 15 13 12 15 17 17 19 20 20 21 22 22 23 22 21
33 32 31 31 31 29 27 25 23 22 21 19 17 18 18 19 21 22 23 24 25 24 22 20 18 17 15 14 13 12 11 10 9 7 6 5 4 4 4 4 5 6 7 8 9 9 10 10 10 10 10 10 10 9 8 8 9 9 10 11 11 12 13 13 14 13 11 9 8 10 12 15 17 18 17 13 11 13 17 20 21 22 23 23 23
Wind_Direction
173 172 168 166 164 160 163 161 160 164 167 171 171 171 171 164 159 157 154 153 167 181 189 191 182 170 171 160 147 141 136 128 123 125 124 125 131 138 145 141 133 129 124 124 124 125 127 130 131 128 132 137 131 128 128 121 116 119 120 114 111 108 105 102 100 100 98 96 93 89 90 88 84 81 78 78 79 77 75 74 74 72 68 65 66
171 168 161 154 151 149 148 147 149 154 155 158 161 165 169 165 165 167 169 178 183 189 194 188 182 187 185 180 176 165 150 139 134 134 130 128 131 138 147 142 134 129 128 129 132 134 135 136 136 135 137 136 131 129 125 120 119 122 121 116 113 110 106 103 100 97 96 94 94 91 90 91 90 87 84 81 81 81 78 76 76 75 72 70 67
171 167 159 151 150 151 150 151 153 153 149 151 154 156 161 164 170 175 178 191 194 197 200 192 189 203 202 189 184 175 162 151 144 140 138 135 131 134 137 133 130 130 134 139 140 137 134 134 133 130 128 128 131 132 127 125 125 119 115 112 111 107 103 101 99 95 93 91 90 90 88 87 88 88 88 86 83 81 80 77 77 78 76 74 73
172 168 162 156 157 159 160 161 163 166 160 160 163 162 168 174 180 186 189 197 200 198 197 192 187 197 202 185 176 174 169 159 150 146 145 142 137 136 135 134 134 137 143 140 128 124 125 130 132 130 126 123 123 123 121 119 117 115 112 109 106 104 103 100 98 95 93 90 87 85 84 82 81 82 84 85 83 82 80 79 76 79 81 79 77
176 172 167 162 165 171 174 174 176 177 170 166 166 166 175 176 172 185 194 191 184 182 183 183 182 184 185 177 172 173 172 165 158 155 153 148 145 144 141 142 144 146 144 127 117 118 122 124 126 129 125 120 117 115 115 114 115 113 107 102 99 100 101 100 99 98 95 92 88 84 81 78 77 77 78 78 78 77 76 75 73 74 79 80 78
181 177 173 170 174 179 183 185 180 175 172 172 169 164 170 168 163 173 180 174 167 168 174 175 173 169 165 171 173 173 173 171 165 160 159 153 151 152 149 146 142 141 136 125 123 127 127 125 125 125 122 120 118 117 119 119 118 109 100 97 95 96 96 95 95 96 96 93 89 84 80 76 75 76 76 77 76 74 70 66 65 67 72 74 75
187 182 178 177 179 177 177 178 175 174 176 180 179 171 167 167 168 165 159 158 158 160 172 176 173 168 156 157 166 169 172 173 170 166 163 156 153 154 152 148 142 141 137 133 136 137 133 129 127 126 123 122 121 124 127 127 123 111 108 110 105 103 97 91 87 86 87 86 85 87 87 86 83 79 77 78 78 76 72 63 55 57 65 74 76
191 187 181 178 178 174 171 173 178 181 182 185 183 177 169 165 173 175 161 155 154 158 171 176 174 171 159 158 166 172 175 174 173 172 167 161 154 150 151 147 144 148 144 142 146 147 141 132 133 139 137 136 134 137 142 139 135 129 129 129 120 118 112 102 98 92 87 85 85 84 87 89 88 83 80 82 82 79 75 65 53 49 58 71 75
192 190 185 179 177 175 173 175 182 183 183 184 182 179 173 161 162 173 171 160 154 155 163 168 168 165 159 164 170 173 178 177 178 178 174 170 160 153 155 145 143 154 154 150 155 157 153 143 140 147 151 157 158 160 160 156 156 152 145 136 125 127 127 117 113 116 116 103 87 69 71 92 93 98 103 95 88 81 75 70 65 57 58 66 73
192 189 186 182 178 175 174 175 180 182 181 180 179 180 177 163 156 162 172 167 160 156 157 162 161 154 146 150 156 160 169 172 177 179 180 180 170 168 170 153 145 160 163 160 160 165 161 149 143 142 148 162 173 178 176 176 182 177 164 153 140 140 140 134 123 131 137 121 89 73 90 120 102 119 150 137 112 91 80 78 77 66 62 64 68
190 188 187 185 180 177 175 172 176 179 178 178 180 179 175 167 157 158 168 175 169 157 152 155 153 145 137 136 143 152 160 166 171 177 185 188 181 182 183 169 159 163 170 169 165 172 171 161 169 162 158 157 170 186 181 183 191 189 183 181 172 169 174 164 138 124 115 104 93 93 101 107 99 109 140 154 143 112 93 93 88 66 65 70 72
193 192 189 187 184 180 176 172 174 177 177 180 184 180 174 169 159 158 165 168 164 154 150 151 142 126 119 124 132 144 155 160 166 172 185 197 193 191 189 178 175 169 171 175 173 180 188 183 189 177 174 174 178 187 175 175 184 185 188 191 189 185 174 141 117 110 109 107 106 106 104 103 102 106 118 139 151 143 123 112 96 72 74 81 83
198 196 192 188 184 182 179 175 174 180 183 183 183 177 170 168 160 157 161 162 159 153 149 143 129 115 111 113 119 135 152 158 171 180 185 199 199 195 191 181 179 179 177 180 184 190 194 195 188 178 182 182 184 187 174 160 166 173 178 184 184 166 140 126 115 111 116 118 116 112 107 104 101 102 108 117 137 151 144 122 101 82 82 86 85
200 197 193 189 186 184 182 177 173 179 184 183 180 172 167 167 161 156 161 164 163 158 153 143 129 128 125 110 99 108 131 155 177 189 186 196 198 193 194 189 183 187 189 187 190 191 185 185 176 168 171 170 172 174 167 154 155 161 159 160 157 143 131 124 123 125 124 121 121 121 112 106 102 103 109 114 127 141 145 133 112 91 85 86 88
199 196 193 189 187 186 182 177 173 177 181 179 175 170 167 168 165 162 161 161 163 166 169 161 144 137 127 115 108 90 104 138 156 170 176 184 192 194 198 197 189 190 195 192 191 187 181 180 175 164 159 158 163 163 158 149 144 142 139 140 139 134 132 133 135 134 127 122 126 130 119 111 108 102 101 109 121 131 139 138 123 101 92 93 93
196 193 192 190 187 184 180 176 175 180 182 177 172 173 174 173 171 167 163 156 158 169 179 178 161 151 134 103 101 86 135 130 106 134 175 180 186 197 197 195 191 188 193 196 194 191 185 183 180 169 159 157 159 157 152 145 139 135 132 133 135 135 138 140 135 129 126 127 128 126 120 116 109 101 102 110 119 125 132 136 126 113 108 105 100
196 192 192 190 184 180 178 176 177 186 187 178 174 178 184 184 179 174 170 165 163 172 183 193 184 173 158 136 120 98 204 148 115 118 177 185 188 197 192 191 192 186 188 193 194 191 187 187 188 176 164 159 157 154 151 148 144 141 140 143 146 145 143 136 129 128 128 125 123 120 116 113 108 106 108 110 113 121 128 131 128 124 124 118 107
200 197 196 192 183 178 178 177 181 190 190 183 179 183 187 187 186 182 179 176 171 173 185 197 192 185 180 171 168 202 163 144 134 106 154 181 189 193 188 187 191 187 184 185 189 192 189 188 186 174 164 159 157 154 151 151 151 149 149 153 154 148 143 136 131 130 124 116 115 115 114 114 115 115 115 115 116 122 128 132 137 141 138 125 115
204 201 202 197 187 182 181 182 187 191 190 187 185 188 189 187 187 189 187 185 180 178 183 188 189 196 209 205 228 224 170 158 160 154 143 179 183 186 190 186 186 184 179 179 185 191 189 186 182 171 163 159 156 156 155 156 157 158 158 157 156 150 143 135 132 129 121 116 115 118 121 120 121 120 120 124 125 126 128 134 144 147 136 123 119
207 205 204 198 189 184 183 188 193 193 191 190 190 191 192 189 188 191 191 192 192 188 186 185 189 196 200 205 240 198 172 168 171 157 135 156 159 173 191 187 185 181 176 180 185 188 187 184 182 174 166 161 160 163 165 166 165 163 163 161 158 153 144 138 137 135 127 124 124 125 127 124 123 121 120 126 128 130 135 138 140 135 127 121 114
208 206 203 197 192 187 186 194 197 194 193 194 195 193 192 191 189 191 192 193 199 199 193 189 191 193 186 185 176 164 162 167 170 157 135 152 151 158 180 182 188 184 179 183 188 189 188 186 185 183 175 169 169 173 174 172 169 165 164 162 159 155 152 148 145 141 136 134 134 131 131 128 127 126 124 128 131 134 137 135 133 130 125 120 111
204 203 199 195 197 193 189 196 197 195 197 196 195 194 193 194 192 194 195 194 198 202 201 197 197 197 191 180 162 159 158 151 165 163 148 154 166 165 171 176 186 185 184 186 189 190 189 189 189 188 185 181 179 183 182 178 174 171 166 164 165 163 160 156 150 147 144 139 134 131 130 129 128 129 129 131 132 132 132 130 130 127 122 116 109
199 200 197 194 197 196 192 194 193 196 199 194 190 192 194 196 196 198 198 195 196 200 204 203 201 201 198 190 178 175 178 176 175 172 162 159 156 154 175 184 186 186 184 186 192 193 190 193 195 192 191 190 190 192 190 187 181 174 170 167 168 167 164 160 157 155 148 140 134 129 128 124 121 122 123 125 125 125 125 125 126 123 120 115 110
199 196 194 191 193 195 195 194 191 193 195 193 193 193 195 199 200 201 198 194 197 199 199 201 200 200 200 198 193 191 193 192 186 181 178 174 163 154 176 182 184 189 182 182 194 197 194 196 197 194 190 190 195 199 198 194 185 174 169 168 167 167 168 167 166 161 153 147 142 136 134 131 126 124 123 123 122 121 120 122 124 121 118 115 111
202 193 189 190 192 193 196 194 190 190 190 192 196 194 194 199 199 199 195 193 198 201 200 201 201 200 201 201 201 202 202 200 193 190 187 177 163 156 172 177 173 180 181 183 193 196 197 198 199 198 195 194 195 200 202 196 185 175 170 168 168 171 173 173 169 162 156 152 148 144 143 141 140 140 140 140 137 132 128 127 125 119 116 115 112
197 190 185 187 188 187 188 185 183 186 189 192 195 192 192 195 195 194 192 193 199 203 205 206 205 203 203 204 207 208 205 202 198 195 191 180 168 159 160 168 166 172 181 181 180 184 191 197 202 202 200 200 198 195 199 196 186 177 174 172 171 172 173 171 166 159 154 151 148 147 146 146 145 145 149 151 148 143 135 130 125 121 119 119 118
191 186 183 183 183 181 181 181 182 186 191 191 190 190 190 192 193 193 192 193 198 201 204 207 206 205 206 207 209 208 205 206 206 203 199 194 183 170 161 154 150 171 184 178 175 183 188 193 203 207 204 202 202 199 197 196 190 182 180 180 176 173 173 172 168 163 157 152 150 148 149 149 145 142 145 148 147 143 136 132 130 128 127 124 124
187 184 182 181 182 181 182 185 185 183 184 184 184 186 188 190 192 192 193 194 196 198 202 203 203 204 207 209 206 204 207 210 208 204 204 203 195 181 171 166 163 165 186 185 177 185 189 190 197 207 208 203 203 205 200 197 195 190 188 188 184 178 176 177 175 171 165 161 159 157 155 152 147 142 142 147 149 146 141 138 137 137 136 133 127
185 184 183 182 182 181 181 183 183 180 180 183 184 185 188 191 191 192 195 196 196 199 201 201 202 204 206 206 204 203 207 206 198 198 203 205 199 188 181 178 172 162 161 195 192 180 188 191 194 201 205 205 207 207 202 200 200 199 195 192 190 184 181 183 182 178 176 172 168 165 162 156 148 141 142 149 153 152 148 146 147 148 147 143 136
185 185 184 183 183 182 179 180 182 180 180 183 185 187 189 189 190 191 194 196 198 202 202 202 204 204 204 205 204 205 208 203 194 196 202 205 201 195 190 186 181 174 169 174 195 191 190 195 199 202 201 202 207 207 201 201 205 206 201 195 194 191 189 188 187 186 184 180 177 171 165 158 150 145 146 154 156 156 155 155 160 164 168 169 162
185 185 185 185 184 182 179 178 180 181 182 183 184 189 191 189 191 193 192 196 201 204 205 206 208 207 204 204 204 203 206 204 198 200 204 205 204 200 195 193 190 188 180 169 175 203 199 200 205 208 205 200 201 204 200 200 206 209 204 199 197 197 196 194 191 192 191 188 185 179 175 169 163 160 159 163 167 167 170 172 184 196 202 216 225
182 181 183 184 183 183 180 176 177 179 180 179 180 185 187 187 191 194 193 196 202 205 205 207 210 208 204 205 206 202 202 204 201 203 205 204 203 200 197 197 199 201 195 181 175 195 203 205 207 209 206 199 198 202 199 198 204 209 207 202 202 202 203 201 197 196 195 195 194 190 188 186 183 186 187 194 200 200 213 218 223 235 242 251 262
179 177 178 180 180 179 176 172 172 175 177 179 181 182 182 183 187 191 192 195 199 202 203 204 206 208 208 209 210 206 206 206 203 206 207 205 202 199 200 201 201 206 208 200 189 181 193 205 209 208 204 199 199 201 200 200 202 206 207 205 206 209 209 206 203 201 200 201 202 201 203 204 206 212 215 223 231 236 244 250 253 261 267 271 274
177 176 175 177 177 174 172 172 172 174 175 177 180 181 181 184 187 191 194 195 198 201 203 204 205 207 210 211 211 210 211 212 210 211 210 206 202 203 206 202 198 207 215 208 196 181 184 199 207 206 201 199 201 199 201 204 205 206 207 206 209 213 215 214 210 207 207 208 211 212 215 219 223 228 233 237 243 248 253 258 262 266 270 272 275
176 175 175 176 177 175 175 175 174 172 170 170 175 178 180 183 184 188 194 196 198 200 202 204 202 203 207 210 212 212 211 214 216 215 213 210 209 211 213 204 200 212 220 211 201 188 182 191 202 203 199 198 203 203 204 208 210 209 209 209 211 213 217 219 217 215 216 218 221 224 226 231 234 237 240 243 247 251 254 258 261 263 266 267 270
171 171 171 172 174 175 175 173 170 169 170 171 176 181 184 187 185 186 189 191 195 200 199 199 197 199 205 208 212 213 213 216 216 214 214 215 215 215 214 207 204 215 221 211 206 196 184 186 198 204 201 199 203 207 207 208 211 214 215 214 215 216 218 221 222 223 225 227 231 235 238 242 244 244 246 247 249 251 254 257 259 262 264 264 266
168 169 169 169 171 172 171 171 168 169 171 171 176 183 187 186 185 187 190 191 196 201 198 194 194 198 204 209 211 212 215 216 213 212 213 215 218 216 212 205 201 209 217 209 205 202 194 193 197 200 202 202 204 209 210 208 209 214 218 219 221 222 221 221 225 228 231 234 237 241 245 248 250 250 250 250 252 253 254 255 257 259 262 264 265
167 170 172 173 173 171 170 171 170 170 171 172 178 183 181 177 181 187 190 192 197 201 199 196 196 200 207 214 218 216 217 216 210 210 211 211 214 214 213 208 196 203 217 210 203 204 203 201 197 196 199 203 206 210 211 209 210 213 217 221 225 227 226 226 228 230 234 237 241 244 247 248 250 250 251 253 254 255 255 255 256 258 261 263 264
165 168 173 176 177 175 174 172 171 171 172 173 177 180 177 176 180 180 177 181 186 189 192 190 190 197 203 210 218 221 222 221 215 212 212 209 211 214 218 214 199 207 226 222 206 205 204 200 197 196 199 202 207 213 214 213 215 219 220 220 224 227 228 230 233 234 235 237 240 242 244 246 249 251 252 254 256 257 258 257 257 258 259 261 263
168 168 173 178 179 175 171 169 169 170 172 173 176 176 175 178 181 176 171 174 174 171 170 171 176 185 191 200 212 219 223 222 217 215 214 212 213 215 218 216 203 213 232 235 215 207 204 198 196 199 200 200 205 214 216 211 213 222 225 225 228 232 233 234 238 238 237 238 239 240 242 244 247 250 252 254 255 256 258 258 258 258 259 260 262
170 168 171 175 173 168 164 163 164 164 165 169 170 169 168 168 165 160 159 163 162 158 158 163 170 173 172 182 203 210 213 213 210 210 213 216 216 213 216 220 214 216 230 234 217 208 203 197 196 198 199 201 205 210 212 212 215 224 227 225 231 240 241 241 244 244 241 242 243 244 245 245 246 249 252 254 256 257 257 257 257 258 259 261 262
166 165 165 163 161 160 157 156 156 156 158 161 163 164 164 163 158 151 150 151 153 153 156 161 165 162 158 165 182 188 188 191 195 194 193 200 204 203 208 215 219 226 236 230 210 200 197 196 195 195 196 204 210 210 214 220 225 229 229 226 231 239 242 244 249 251 247 244 245 247 249 249 249 251 252 255 258 258 257 257 258 260 261 261 262
160 161 159 155 154 155 154 152 150 149 149 151 155 158 159 160 163 159 151 146 149 157 162 162 162 161 161 162 162 161 161 164 168 158 141 142 150 153 153 145 157 225 236 218 201 195 196 197 199 200 204 213 218 218 221 227 230 230 231 230 233 238 239 242 251 257 255 251 247 248 252 254 253 252 253 255 258 258 258 259 261 262 262 261 261
153 152 151 150 150 151 151 150 147 142 142 143 145 150 153 155 159 159 153 141 138 154 167 167 164 162 158 156 156 154 157 160 159 147 135 131 126 119 114 109 102 105 140 173 177 182 189 192 195 203 215 226 231 231 232 236 239 240 240 238 238 240 240 239 244 255 264 263 253 247 252 259 258 256 255 256 258 258 259 261 263 263 263 261 260
148 144 143 145 144 145 145 145 142 139 140 140 139 142 147 153 160 162 156 142 134 151 167 167 161 158 154 154 155 150 149 155 154 147 142 138 131 120 114 110 104 105 115 123 129 140 149 157 168 176 196 225 236 235 241 251 260 262 255 249 247 247 246 244 247 257 265 266 258 249 252 259 260 257 256 258 259 258 257 259 261 262 262 261 259
143 140 139 140 139 140 142 140 138 136 138 140 141 141 137 141 156 163 154 144 142 151 160 157 152 152 152 151 147 137 131 132 133 137 138 134 131 129 132 135 124 113 113 109 108 113 114 118 133 144 164 218 254 274 278 279 285 289 280 272 271 268 264 264 268 273 274 271 266 258 257 263 262 257 258 261 261 259 259 261 261 261 262 262 259
139 137 137 137 137 137 137 138 136 131 131 138 143 144 137 132 139 144 141 140 142 146 149 148 146 147 147 144 137 131 125 116 111 118 126 128 125 118 117 125 128 121 111 96 84 77 73 72 74 75 74 27 349 337 325 313 306 307 306 301 298 296 294 293 292 291 286 281 275 263 258 264 265 262 265 269 268 266 267 268 269 270 270 268 265
132 132 132 132 132 131 131 134 132 122 119 128 141 147 146 140 135 131 131 134 135 136 136 137 137 137 136 133 128 125 122 113 106 108 114 122 125 115 107 107 105 101 96 81 64 53 46 42 35 26 16 6 357 349 344 338 327 321 315 308 305 309 313 311 304 301 297 289 282 268 259 262 265 266 272 278 279 277 277 276 278 280 280 279 277
126 126 125 124 124 125 124 124 123 116 108 112 128 141 147 148 141 133 131 130 127 125 123 124 126 126 122 120 119 119 116 108 102 104 107 112 115 107 99 95 90 82 77 66 49 29 14 3 355 349 345 343 341 341 340 336 333 331 326 322 321 323 326 320 307 306 303 291 288 284 272 270 274 274 278 285 284 282 283 282 280 280 282 283 282
122 122 120 117 115 115 114 112 113 111 104 101 112 126 137 146 144 137 134 129 124 122 119 117 117 117 113 110 108 108 106 98 93 95 97 95 95 85 66 50 34 13 359 342 324 317 315 315 316 317 321 327 331 337 342 341 343 346 343 340 333 327 325 315 299 302 302 295 296 290 272 270 285 289 288 289 285 281 283 281 276 275 277 278 280
116 115 115 112 107 104 103 103 103 104 101 99 103 111 121 133 140 139 136 130 123 119 117 114 111 109 107 104 99 94 90 85 81 79 78 71 62 50 30 16 11 5 354 337 325 318 312 309 311 313 316 324 327 331 339 346 352 358 360 357 347 337 329 316 303 301 297 294 310 306 282 281 291 289 280 278 283 287 287 281 277 279 281 282 282
Height
824 825 826 827 828 830 831 832 833 834 836 838 839 840 841 841 842 842 842 843 844 845 846 845 845 845 846 847 847 847 847 848 848 848 849 849 850 851 851 851 850 850 850 852 852 853 853 853 854 854 854 854 854 853 853 853 853 853 853 853 853 853 853 852 852 852 852 852 851 851 851 851 851 850 850 850 849 849 848 848 848 847 847 846 845
824 825 826 827 828 829 831 832 833 834 836 838 839 840 841 841 841 841 842 843 844 845 845 845 845 845 846 847 847 847 848 849 849 849 849 850 850 851 852 852 851 850 851 852 853 854 854 854 854 855 855 855 855 855 855 854 854 854 854 854 854 854 854 853 853 853 853 852 852 852 852 852 852 852 851 851 851 850 850 849 849 849 848 848 847
824 825 826 827 828 829 831 832 833 834 836 838 839 840 841 841 841 841 841 842 844 844 845 845 845 846 846 846 846 847 848 849 850 850 850 851 851 852 852 853 852 851 851 852 853 854 854 855 855 855 855 856 856 856 856 855 855 855 855 855 855 855 855 855 854 854 854 853 853 853 853 853 853 852 852 852 852 852 851 851 850 850 850 849 849
825 825 825 826 827 829 830 832 832 834 836 837 839 840 840 841 841 841 841 842 843 844 845 845 845 845 845 846 846 847 849 849 850 850 851 851 852 852 853 853 853 852 852 853 854 854 855 855 856 856 857 857 857 857 857 856 856 856 856 856 856 856 856 856 856 855 855 855 855 854 854 854 854 854 853 853 853 853 852 852 852 851 851 851 850
825 825 826 826 827 828 830 831 832 833 835 837 838 839 840 841 841 840 841 841 842 843 844 845 845 845 845 845 846 847 848 849 850 851 851 852 853 853 853 854 853 853 853 854 855 855 856 856 857 858 858 858 858 858 858 858 858 857 857 857 857 857 857 857 857 857 856 856 856 856 856 855 855 855 855 855 854 854 854 853 853 853 852 852 852
825 825 826 826 827 828 829 830 831 832 834 836 838 839 840 840 840 840 840 841 842 843 844 844 845 845 845 845 846 847 848 849 850 851 852 852 853 854 854 854 854 854 854 855 856 856 857 858 858 859 859 859 859 859 859 859 859 859 859 859 859 859 858 858 858 858 858 858 857 857 857 857 857 857 856 856 856 855 855 855 854 854 854 853 853
825 825 825 826 827 827 828 829 830 832 833 835 837 838 839 840 839 839 840 841 842 842 844 844 845 845 845 846 847 848 849 849 851 851 852 852 853 854 854 854 854 855 855 856 857 857 858 859 859 860 860 860 860 860 860 860 860 860 860 860 860 860 859 859 859 859 859 859 859 858 858 858 858 858 858 857 857 857 856 856 856 855 855 854 854
825 826 826 826 827 827 828 829 830 831 833 835 836 838 839 839 839 839 839 840 841 842 844 844 844 845 845 846 847 848 849 850 851 851 852 853 854 854 855 855 855 855 856 856 857 858 859 860 860 860 860 860 860 860 860 861 861 860 861 861 860 860 860 860 860 860 860 859 859 859 859 859 859 858 858 858 858 858 857 857 857 856 856 855 855
825 825 826 826 827 827 828 828 829 831 832 834 836 837 838 839 839 839 839 840 841 842 844 844 844 845 846 846 847 848 849 849 851 851 852 853 854 855 855 855 856 856 857 857 858 859 860 860 860 860 860 860 860 860 861 861 861 861 861 861 861 861 861 861 861 860 860 860 860 860 859 859 859 859 859 859 859 859 858 858 858 857 857 856 856
825 825 825 826 827 827 827 828 829 830 832 833 835 837 838 838 838 839 839 840 841 842 843 844 845 845 846 847 847 848 849 850 850 851 852 853 854 855 856 856 856 857 857 858 859 860 861 861 861 861 860 860 860 860 861 861 860 860 861 862 862 862 861 861 861 861 860 860 860 860 859 859 859 859 859 859 859 859 859 859 859 858 858 857 857
824 824 825 826 826 826 827 828 829 830 831 833 835 836 837 838 838 839 840 840 841 842 844 844 845 845 846 847 847 848 848 850 851 851 852 853 854 855 856 857 857 857 858 859 860 861 861 861 861 861 861 861 860 860 861 861 860 861 862 862 862 862 862 861 861 861 861 861 860 860 859 859 859 859 859 859 859 860 860 860 860 859 859 858 858
823 824 824 825 825 826 826 827 828 829 830 832 834 835 836 837 837 838 839 840 842 843 844 844 845 846 847 847 848 848 849 849 850 851 852 852 853 855 856 857 858 858 859 859 860 861 862 862 861 861 861 861 861 860 860 861 860 861 862 862 862 862 862 861 861 861 861 861 860 860 859 859 859 859 859 859 859 860 860 860 860 860 860 859 859
822 823 823 824 824 825 825 826 827 828 829 831 833 834 835 836 837 838 839 840 842 843 844 844 844 846 847 848 848 849 849 850 850 851 852 852 853 855 856 857 858 859 859 860 861 861 862 862 862 862 862 862 861 861 861 861 861 861 861 862 862 862 862 862 861 861 861 861 861 860 860 860 859 859 859 859 859 860 861 861 861 861 861 860 860
820 821 822 822 823 824 825 825 826 827 829 831 832 833 833 835 836 838 840 840 840 842 843 843 845 846 847 848 850 850 850 850 851 851 852 852 854 855 856 856 857 859 860 860 861 861 862 862 862 862 862 862 862 861 861 861 861 861 861 862 862 862 862 862 862 862 862 861 861 861 861 860 860 860 859 859 860 860 861 861 862 862 861 861 861
819 820 821 821 822 823 823 825 825 826 828 829 830 831 832 834 835 837 840 841 841 842 842 842 844 846 848 849 850 851 851 851 851 852 852 853 854 855 856 856 857 859 860 860 861 861 862 862 862 862 862 862 862 862 861 861 862 862 862 862 862 863 863 863 863 863 862 862 862 861 861 861 861 860 860 860 860 861 861 862 862 862 862 863 863
818 819 820 820 821 822 823 824 825 826 827 828 828 830 831 833 835 836 837 839 841 842 842 842 843 844 848 850 851 852 853 852 851 852 853 854 854 855 856 857 858 859 860 860 861 861 862 862 862 863 863 863 862 862 862 862 862 862 863 863 863 863 863 863 863 863 863 863 862 862 862 862 861 861 861 861 861 861 862 862 863 863 863 863 863
817 818 819 820 820 821 822 823 824 825 826 826 827 829 831 833 835 836 836 836 839 841 841 842 842 843 844 847 850 853 853 852 852 853 854 854 855 855 856 857 858 859 860 860 861 862 862 862 862 863 863 863 863 863 863 863 863 863 863 864 864 864 863 864 864 864 864 863 863 863 863 862 862 862 862 862 862 862 863 863 863 864 863 864 864
816 817 818 819 819 820 821 822 823 825 826 826 827 829 831 832 833 834 835 835 837 839 840 841 842 843 843 843 845 847 848 851 853 855 855 855 856 856 857 858 859 859 860 861 861 862 862 862 863 863 863 863 863 863 864 864 864 864 864 865 864 864 864 864 864 864 864 864 864 864 864 863 863 863 863 863 863 864 864 864 865 865 865 865 864
815 816 817 818 819 819 820 821 823 824 825 825 827 828 830 831 832 833 834 835 836 837 839 840 841 843 843 843 843 843 845 847 850 853 855 856 856 857 857 858 859 859 860 861 861 862 862 863 863 863 863 864 864 864 864 865 865 865 865 866 865 865 865 865 865 865 865 865 865 865 865 865 864 864 864 864 864 864 865 865 865 865 865 865 865
814 815 816 817 818 818 820 821 822 823 824 825 826 828 829 830 832 833 834 835 835 836 837 838 839 841 842 843 843 843 844 845 847 849 852 855 856 857 858 858 859 860 860 861 861 862 862 863 863 863 864 864 865 865 865 865 866 866 866 866 866 866 865 865 865 865 865 865 865 866 866 866 865 865 865 864 864 865 865 865 865 866 866 866 866
813 814 815 816 817 818 819 820 821 822 823 824 826 827 828 829 830 832 833 834 834 835 836 837 838 839 841 842 842 844 845 846 847 848 850 854 856 856 857 858 859 860 860 860 861 862 863 863 864 864 864 865 865 866 866 866 866 866 866 866 866 866 866 866 865 865 865 866 866 867 867 867 867 866 866 866 865 865 865 865 866 866 866 866 866
812 813 814 815 816 817 818 819 820 821 822 824 825 826 827 828 830 831 832 833 834 835 836 837 837 839 840 840 841 843 845 846 847 848 850 852 854 855 856 857 858 859 860 860 861 862 863 864 864 864 865 865 866 866 866 867 867 867 866 866 866 866 866 866 866 866 866 866 867 867 867 868 868 868 867 867 867 867 867 867 867 867 867 867 867
811 812 813 814 815 816 817 818 819 820 822 823 824 825 826 827 829 830 831 832 833 834 835 836 837 838 839 839 840 840 841 843 844 846 848 849 852 855 856 857 857 858 859 861 861 862 863 864 864 864 865 865 866 866 867 867 867 867 867 867 867 867 867 867 867 867 867 867 867 868 868 869 869 869 869 869 869 868 868 868 868 868 867 867 867
811 811 812 814 815 816 817 818 819 820 821 823 823 824 825 827 828 829 830 831 832 833 834 835 836 837 838 839 839 839 840 841 842 843 845 847 849 853 855 856 857 858 859 861 862 863 863 864 864 865 865 866 866 866 867 867 867 867 867 867 867 867 867 868 868 868 867 867 868 868 869 869 869 870 870 870 870 870 869 869 869 869 868 868 868
810 810 811 813 815 816 816 817 819 820 821 822 823 823 825 826 827 828 829 830 831 832 833 835 835 836 837 838 839 840 840 841 842 843 845 846 848 851 854 856 857 858 859 860 861 862 863 864 864 865 865 865 866 866 867 867 867 867 867 867 867 868 868 868 868 868 868 868 868 868 869 869 870 870 871 871 871 870 870 869 869 869 869 869 869
809 809 811 813 814 815 816 817 818 819 820 822 822 823 824 825 826 827 829 830 831 832 833 834 835 836 837 837 838 839 840 841 842 843 844 846 847 849 852 856 857 858 859 860 860 861 863 863 864 864 865 865 865 866 866 867 867 867 867 867 867 868 868 869 869 869 869 868 869 869 869 870 870 870 871 871 871 871 870 870 870 870 870 870 870
807 809 810 812 812 813 815 816 817 818 820 821 822 823 824 825 826 827 828 830 831 832 833 834 834 835 836 837 837 838 840 841 841 842 843 844 846 847 849 853 857 859 859 860 860 860 861 862 863 864 864 865 865 865 866 866 867 867 867 867 867 868 868 869 869 869 869 869 869 870 870 870 870 871 871 871 871 871 871 871 870 870 870 870 870
807 808 809 810 811 812 814 815 817 818 819 820 821 822 823 824 825 827 828 829 831 831 832 833 834 835 835 836 837 838 839 840 841 842 843 844 845 846 847 849 852 856 859 859 860 860 860 861 862 863 864 864 865 865 865 866 866 866 867 867 867 867 868 869 869 869 869 869 870 870 871 871 871 871 872 872 872 872 871 871 871 871 871 871 871
805 807 808 809 810 812 813 815 816 817 818 819 821 822 823 824 825 826 828 829 830 831 832 832 833 834 835 836 836 837 838 839 840 841 842 844 845 846 847 847 848 851 855 858 859 859 860 860 860 861 863 864 864 864 865 865 866 866 866 867 867 867 868 869 869 870 870 870 870 871 871 872 872 872 872 873 873 873 872 872 872 872 872 872 871
804 805 807 809 810 812 813 814 815 816 818 819 820 821 822 823 824 826 827 829 830 831 831 832 833 834 835 835 836 837 837 838 839 840 841 843 844 845 846 848 848 848 850 854 857 857 858 859 859 860 861 862 863 863 864 864 865 865 866 866 867 868 868 869 869 870 870 871 871 872 872 872 873 873 873 874 874 873 873 873 872 872 872 872 872
802 804 806 808 810 811 812 813 814 815 817 818 819 820 822 823 824 825 827 828 830 830 831 832 832 833 834 835 836 836 837 837 838 840 841 842 843 845 846 848 849 849 849 851 855 856 856 857 858 858 859 861 862 862 863 864 864 865 865 866 867 867 868 869 869 870 870 871 871 872 873 873 873 873 874 874 874 873 873 873 872 872 872 872 872
800 803 805 808 809 811 812 813 814 815 816 818 819 820 821 822 824 825 826 828 829 830 830 831 832 833 834 835 835 836 836 837 838 839 840 842 843 844 846 847 849 850 850 851 853 854 855 856 857 858 859 860 861 861 862 863 864 864 865 866 866 867 867 868 869 869 870 871 872 872 873 873 873 874 874 874 873 873 873 873 872 872 872 872 872
798 801 804 806 808 810 811 812 813 814 816 817 819 820 821 822 824 825 826 827 829 829 830 830 831 832 834 834 835 835 836 837 837 838 839 841 842 844 845 847 848 849 850 851 852 853 854 856 856 857 858 859 860 860 861 862 863 864 864 865 866 866 867 867 868 869 869 870 871 872 872 873 873 873 873 873 873 873 873 872 872 872 872 872 871
796 799 802 805 807 809 810 812 813 814 815 817 818 820 821 823 824 825 826 827 828 828 829 830 831 832 833 833 834 835 836 836 837 838 839 840 842 843 844 845 847 848 848 849 850 852 853 854 855 856 858 858 859 859 860 861 861 862 863 864 865 865 866 867 867 868 868 870 870 871 872 872 872 873 873 873 873 873 872 872 872 871 871 871 871
795 798 801 804 806 808 810 811 812 813 815 816 818 820 821 822 823 824 825 826 827 827 828 829 830 831 831 832 833 834 835 835 836 837 838 839 841 842 843 844 846 847 847 847 848 849 851 852 854 855 856 857 858 858 859 860 861 862 862 863 864 865 865 866 866 867 867 868 869 870 871 871 872 872 872 872 872 871 871 871 871 870 870 870 870
795 798 801 803 805 807 809 810 811 813 814 816 818 819 820 821 823 824 825 825 826 827 827 828 829 830 831 831 832 833 834 834 835 836 837 838 840 841 842 843 845 846 846 845 846 847 849 851 852 853 854 855 856 858 858 859 861 861 862 863 863 864 864 865 865 866 866 867 868 869 870 870 870 870 870 870 870 870 870 869 869 869 869 869 868
795 798 801 803 805 806 808 809 811 812 814 815 817 819 820 821 822 823 824 825 826 826 827 828 829 830 830 831 831 832 833 833 834 835 836 837 839 840 841 843 844 845 845 844 845 846 847 848 850 852 854 855 856 857 858 859 859 861 861 862 862 863 863 863 864 864 865 866 866 867 867 868 868 868 868 868 867 867 867 867 867 867 866 866 866
795 798 801 803 805 806 808 809 810 812 814 815 817 818 819 820 821 822 823 824 825 826 827 828 829 829 830 830 831 831 831 832 833 834 835 836 837 838 840 841 843 844 844 844 844 845 846 847 848 850 852 854 855 856 857 858 858 859 859 860 861 861 862 862 862 862 863 863 863 864 864 865 865 865 865 865 865 865 864 864 864 864 864 864 864
795 798 801 803 805 806 807 809 810 812 813 815 816 817 818 819 821 821 822 823 824 825 826 827 828 829 830 830 831 830 831 831 832 833 834 835 836 837 839 840 841 842 843 843 843 844 845 846 847 848 850 852 854 855 855 857 858 858 858 859 859 859 859 859 859 859 859 860 860 860 861 861 862 862 862 862 862 862 862 861 861 861 861 861 861
796 797 800 803 804 805 807 809 810 812 813 814 816 817 818 819 820 821 821 822 823 824 825 826 828 829 830 830 830 830 830 831 832 833 834 834 835 836 838 839 840 841 842 843 843 843 844 845 846 847 849 851 852 854 855 856 857 857 856 856 855 855 856 856 855 856 856 856 856 856 857 858 858 859 859 859 858 858 859 859 859 859 858 858 858
796 797 800 802 804 805 807 809 810 811 812 814 815 816 818 818 819 820 821 822 823 823 825 826 828 829 829 830 830 830 830 831 832 833 833 834 834 835 837 838 839 840 841 841 841 842 843 844 845 847 849 850 851 852 853 853 853 852 852 853 853 852 853 853 852 853 854 854 854 853 853 854 854 855 855 854 854 855 855 855 855 855 855 855 855
795 796 799 802 804 806 808 809 810 811 812 814 815 816 817 818 819 820 821 822 822 823 824 826 827 828 829 829 829 829 830 831 832 832 833 833 834 835 836 837 838 839 839 840 840 841 842 843 845 846 848 848 849 850 850 849 849 849 850 851 851 850 852 852 850 850 851 851 851 850 850 850 851 851 851 850 850 851 852 851 851 851 851 851 851
793 795 797 800 803 806 808 809 810 811 812 814 815 816 817 818 819 820 821 822 822 823 824 825 826 827 828 828 829 830 830 831 832 832 833 834 835 836 836 836 837 838 838 839 840 841 842 843 844 846 847 847 847 848 848 848 848 849 849 849 849 849 851 851 849 847 847 848 848 847 846 847 848 847 847 846 846 846 847 847 847 847 847 847 847
792 794 796 799 802 806 808 809 810 811 813 814 815 816 817 818 819 820 821 821 822 823 824 825 826 826 827 828 829 830 830 831 832 833 834 835 836 836 836 836 837 838 839 839 840 841 843 844 845 846 847 847 848 848 849 848 848 849 848 849 849 848 849 849 847 845 845 845 845 844 843 844 844 843 842 843 842 842 843 843 843 843 843 843 843
791 793 796 798 801 805 808 809 811 811 813 815 816 817 818 818 819 820 820 821 822 823 824 824 825 826 827 828 829 829 830 831 832 833 834 835 836 836 836 836 838 839 840 840 841 842 843 844 845 846 847 848 848 848 848 848 848 848 848 848 848 847 847 847 845 844 844 844 843 842 841 841 841 839 837 838 838 838 838 839 839 840 839 839 840
791 792 796 798 800 804 808 809 811 812 813 815 816 817 818 817 818 818 819 821 821 822 823 824 825 826 827 828 828 829 830 831 831 832 833 834 835 836 835 836 838 840 840 841 842 842 843 843 844 846 846 847 847 847 847 847 846 846 846 846 846 846 846 845 844 843 843 842 842 841 839 838 839 837 835 835 836 835 835 836 836 836 836 836 836
790 792 796 799 800 803 808 810 811 812 813 815 816 817 818 817 817 818 819 820 821 822 823 824 825 826 828 828 829 829 830 831 831 832 833 834 835 835 836 837 838 839 840 841 842 842 843 843 844 845 846 846 846 846 846 845 845 845 845 844 844 844 843 843 842 842 841 840 841 840 837 836 837 836 834 834 834 833 833 834 833 833 834 834 834
791 794 797 799 800 803 807 810 811 812 814 815 816 817 818 817 817 818 819 821 821 822 823 824 825 827 828 829 829 829 830 830 831 832 833 834 834 835 836 837 838 839 839 840 841 841 842 843 843 844 844 844 844 844 844 844 843 843 843 842 842 841 840 840 839 839 839 838 838 838 836 834 835 834 832 832 832 831 831 832 831 831 831 832 833
793 796 799 801 802 803 806 809 811 812 814 816 816 816 817 817 818 818 820 821 822 823 824 825 826 827 828 829 829 830 830 830 831 832 832 833 834 835 836 837 838 839 839 840 841 841 842 842 842 843 843 843 843 843 842 841 841 840 840 840 840 839 838 838 837 837 837 836 837 837 835 833 833 833 831 831 830 829 829 830 829 829 828 829 830
794 798 801 802 803 804 806 809 811 813 815 816 817 817 817 817 818 819 820 821 822 824 825 826 827 828 828 829 830 830 830 830 831 831 832 833 834 835 836 837 837 837 838 838 839 840 840 841 841 842 842 841 841 841 840 840 839 839 839 839 838 838 837 837 836 835 834 834 835 835 833 832 831 831 830 830 828 827 827 828 827 826 826 826 827
796 800 803 802 803 805 807 810 812 814 815 817 818 818 817 818 818 818 819 821 823 825 826 827 828 829 829 830 830 830 831 831 832 832 832 833 834 835 836 836 837 837 837 838 838 838 839 839 840 840 840 839 839 839 839 839 839 838 838 838 837 836 836 835 835 834 833 832 832 833 832 831 829 828 828 828 826 823 823 824 824 823 823 823 823